Location: Newark
(44.1667°N, 8.2500°E)
Time: 14:35:07
(UTC+00:00)

Vanguard 1 Rocket - All Passes

Search period start: 05 December 2019 00:00
Search period end: 15 December 2019 00:00
Orbit: 650 x 4226 km, 34.3° (Epoch: 04 December)

Date Brightness Start Highest point End Pass type
(mag) Time Alt. Az. Time Alt. Az. Time Alt. Az.
05 Dec - 02:13:47 10° WSW 02:18:11 21° SSW 02:21:41 10° SSE night (unlit)
05 Dec - 20:04:10 10° SSW 20:16:31 26° SSE 20:24:17 10° ESE visible
05 Dec - 22:31:59 10° WSW 22:42:52 39° S 22:49:02 10° ESE visible
06 Dec - 01:01:01 10° WSW 01:07:39 31° SSW 01:12:06 10° SE night (unlit)
06 Dec - 18:52:20 10° S 19:04:10 20° SSE 19:12:23 10° ESE visible
06 Dec - 21:18:18 10° SW 21:31:19 36° SSE 21:38:38 10° ESE visible
06 Dec - 23:47:47 10° WSW 23:56:52 39° S 00:02:13 10° ESE night (unlit)
07 Dec - 02:16:53 10° WSW 02:20:52 18° SSW 02:24:04 10° SSE night (unlit)
07 Dec - 17:42:43 10° S 17:51:29 14° SE 17:58:30 10° ESE visible
07 Dec - 20:04:48 10° SW 20:19:18 32° SSE 20:27:51 10° ESE visible
07 Dec - 22:34:01 10° WSW 22:45:43 43° S 22:52:08 10° ESE visible
08 Dec - 01:03:43 10° WSW 01:10:25 29° SSW 01:14:53 10° SE night (unlit)
08 Dec - 18:51:58 10° SSW 19:06:52 27° SSE 19:16:26 10° ESE visible
08 Dec - 21:19:54 10° SW 21:34:07 42° S 21:41:50 10° ESE visible
08 Dec - 23:50:13 10° WSW 23:59:40 40° SSW 00:05:11 10° SE night (unlit)
09 Dec - 02:20:17 10° WSW 02:23:27 14° SW 02:26:05 10° S night (unlit)
09 Dec - 17:40:33 10° S 17:54:05 20° SSE 18:03:51 10° ESE visible
09 Dec - 20:05:49 10° SW 20:22:03 39° SSE 20:31:11 10° E visible
09 Dec - 22:36:10 10° WSW 22:48:31 46° S 22:55:11 10° ESE visible
10 Dec - 01:06:29 10° W 01:13:05 26° SSW 01:17:32 10° SSE night (unlit)
10 Dec - 16:32:17 10° SSE 16:41:05 13° SE 16:48:31 10° ESE visible
10 Dec - 18:52:14 10° SSW 19:09:31 33° SSE 19:20:02 10° E visible
10 Dec - 21:21:41 10° WSW 21:36:54 47° S 21:44:55 10° ESE visible
10 Dec - 23:52:42 10° W 00:02:25 38° SSW 00:08:04 10° SE night (unlit)
11 Dec - 02:24:34 10° SW 02:25:55 11° SW 02:27:09 10° SSW night (unlit)
11 Dec - 17:39:47 10° SSW 17:56:36 27° SSE 18:08:03 10° E visible
11 Dec - 20:07:07 10° SW 20:24:45 45° SSE 20:34:22 10° E visible
11 Dec - 22:38:24 10° WSW 22:51:17 47° S 22:58:10 10° ESE visible
12 Dec - 01:09:21 10° W 01:15:39 22° SSW 01:20:00 10° SSE night (unlit)
12 Dec - 16:29:18 10° S 16:43:29 19° SE 16:54:29 10° ESE visible
12 Dec - 18:52:58 10° SW 19:12:06 40° SSE 19:23:22 10° E visible
12 Dec - 21:23:37 10° WSW 21:39:38 51° S 21:47:58 10° ESE visible
12 Dec - 23:55:13 10° W 00:05:05 35° SSW 00:10:50 10° SE night (unlit)
13 Dec - 15:23:40 10° SSE 15:30:21 12° SE 15:36:26 10° ESE daylight
13 Dec - 17:39:46 10° SSW 17:59:03 33° SSE 18:11:42 10° E visible
13 Dec - 20:08:39 10° WSW 20:27:25 50° S 20:37:27 10° E visible
13 Dec - 22:40:41 10° W 22:54:00 47° SSW 23:01:06 10° ESE visible
14 Dec - 01:12:25 10° W 01:18:06 19° SW 01:22:12 10° S night (unlit)
14 Dec - 16:28:07 10° S 16:45:46 25° SE 16:58:55 10° E visible
14 Dec - 18:54:03 10° SW 19:14:40 46° SSE 19:26:32 10° E visible
14 Dec - 21:25:39 10° WSW 21:42:21 53° S 21:50:57 10° ESE visible
